Location: Le Moustier
(44.1000°N, 6.5167°E)
Time: 22:26:14
(UTC+00:00)

SL-16 R/B - Pass Details

Date: 13 December 2025
Orbit: 841 x 844 km, 71.0° (Epoch: 21 January)

Event Time Altitude Azimuth Distance (km) Brightness Sun altitude
Rises 17:22:55 0° 161° (SSE) 3,383 5.3 -15.0°
Reaches altitude 10° 17:25:58 10° 145° (SE) 2,454 4.4 -15.5°
Enters shadow 17:29:33 20° 105° (ESE) 1,871 3.5 -16.1°
